| time (UTC) | temp F | wind direction | speed MPH | gust MPH | rain 1hr in | rain 24hr in | rain mn in | humidity % | barometer mb |
| 20260510174004 | 84 | 298 | 2.0 | 5.0 | 0.00 | 0.07 | 0.00 | 68 | 1016.6 |
| 20260510173004 | 84 | 341 | 3.0 | 8.0 | 0.00 | 0.07 | 0.00 | 71 | 1016.7 |
| 20260510172004 | 84 | 309 | 4.0 | 9.0 | 0.00 | 0.07 | 0.00 | 70 | 1016.7 |
| 20260510171004 | 83 | 328 | 5.0 | 8.0 | 0.00 | 0.07 | 0.00 | 69 | 1016.7 |
| 20260510170004 | 83 | 21 | 1.0 | 6.0 | 0.00 | 0.08 | 0.00 | 74 | 1016.8 |
| 20260510165004 | 82 | 26 | 1.0 | 5.0 | 0.00 | 0.09 | 0.00 | 74 | 1016.8 |
| 20260510164004 | 82 | 76 | 1.0 | 5.0 | 0.00 | 0.11 | 0.00 | 75 | 1016.9 |
| 20260510162004 | 81 | 307 | 2.0 | 3.0 | 0.00 | 0.18 | 0.00 | 76 | 1016.8 |
| 20260510161004 | 80 | 152 | 1.0 | 2.0 | 0.00 | 0.22 | 0.00 | 77 | 1016.9 |
| 20260510160004 | 80 | 152 | 2.0 | 3.0 | 0.00 | 0.26 | 0.00 | 78 | 1016.7 |
| 20260510155004 | 79 | 74 | 2.0 | 3.0 | 0.00 | 0.32 | 0.00 | 80 | 1016.7 |
| 20260510154004 | 78 | 42 | 2.0 | 3.0 | 0.00 | 0.35 | 0.00 | 84 | 1016.7 |
| 20260510153004 | 77 | 57 | 1.0 | 5.0 | 0.00 | 0.38 | 0.00 | 87 | 1016.7 |
| 20260510152004 | 76 | 82 | 1.0 | 3.0 | 0.00 | 0.41 | 0.00 | 89 | 1016.8 |
| 20260510151004 | 75 | 1 | 2.0 | 3.0 | 0.00 | 0.42 | 0.00 | 91 | 1016.8 |
| 20260510150004 | 74 | 355 | 3.0 | 6.0 | 0.00 | 0.44 | 0.00 | 92 | 1017.1 |
| 20260510145005 | 74 | 19 | 2.0 | 5.0 | 0.00 | 0.46 | 0.00 | 92 | 1017.0 |
| 20260510144004 | 73 | 42 | 1.0 | 5.0 | 0.00 | 0.47 | 0.00 | 92 | 1017.3 |
| 20260510143005 | 73 | 37 | 1.0 | 3.0 | 0.00 | 0.47 | 0.00 | 92 | 1017.3 |
| 20260510142004 | 72 | 37 | 1.0 | 3.0 | 0.00 | 0.47 | 0.00 | 92 | 1017.3 |
| 20260510141004 | 71 | 36 | 0.0 | 3.0 | 0.00 | 0.49 | 0.00 | 92 | 1017.1 |
| 20260510140004 | 71 | 29 | 2.0 | 3.0 | 0.00 | 0.49 | 0.00 | 93 | 1017.1 |
| 20260510135004 | 70 | 17 | 1.0 | 3.0 | 0.00 | 0.49 | 0.00 | 92 | 1016.9 |
| 20260510134004 | 69 | 349 | 1.0 | 3.0 | 0.00 | 0.49 | 0.00 | 92 | 1017.0 |
| 20260510133005 | 68 | 349 | 0.0 | 3.0 | 0.00 | 0.49 | 0.00 | 92 | 1016.9 |
| 20260510132004 | 68 | 347 | 1.0 | 3.0 | 0.00 | 0.49 | 0.00 | 92 | 1017.0 |
| 20260510131004 | 68 | 340 | 2.0 | 6.0 | 0.00 | 0.49 | 0.00 | 92 | 1016.9 |
| 20260510130004 | 68 | 341 | 3.0 | 6.0 | 0.00 | 0.49 | 0.00 | 92 | 1016.7 |
| 20260510125004 | 67 | 15 | 3.0 | 3.0 | 0.00 | 0.49 | 0.00 | 92 | 1016.5 |
| 20260510124005 | 67 | 18 | 1.0 | 3.0 | 0.00 | 0.50 | 0.00 | 92 | 1016.3 |
| 20260510123004 | 66 | 13 | 3.0 | 3.0 | 0.00 | 0.50 | 0.00 | 92 | 1016.2 |
| 20260510122005 | 66 | 51 | 1.0 | 3.0 | 0.00 | 0.50 | 0.00 | 92 | 1016.0 |
| 20260510115004 | 64 | 51 | 0.0 | 2.0 | 0.00 | 0.50 | 0.00 | 91 | 1015.4 |
| 20260510114004 | 64 | 51 | 1.0 | 2.0 | 0.00 | 0.50 | 0.00 | 91 | 1015.3 |
| 20260510113005 | 64 | 51 | 0.0 | 3.0 | 0.00 | 0.50 | 0.00 | 91 | 1015.3 |
| 20260510112004 | 64 | 51 | 1.0 | 3.0 | 0.00 | 0.50 | 0.00 | 91 | 1015.2 |
| 20260510111005 | 64 | 51 | 0.0 | 2.0 | 0.00 | 0.51 | 0.00 | 91 | 1015.1 |
| 20260510110005 | 65 | 51 | 0.0 | 1.0 | 0.00 | 0.51 | 0.00 | 91 | 1014.9 |
| 20260510104005 | 65 | 51 | 0.0 | 2.0 | 0.00 | 0.51 | 0.00 | 91 | 1014.7 |
| 20260510103005 | 65 | 51 | 0.0 | 2.0 | 0.00 | 0.51 | 0.00 | 91 | 1014.6 |
| 20260510102004 | 65 | 51 | 0.0 | 1.0 | 0.00 | 0.51 | 0.00 | 91 | 1014.5 |
| 20260510100004 | 66 | 51 | 1.0 | 3.0 | 0.00 | 0.51 | 0.00 | 91 | 1014.4 |
| 20260510095005 | 66 | 51 | 1.0 | 3.0 | 0.00 | 0.51 | 0.00 | 91 | 1014.2 |
| 20260510094005 | 66 | 51 | 1.0 | 3.0 | 0.00 | 0.51 | 0.00 | 91 | 1014.1 |
| 20260510093005 | 66 | 48 | 0.0 | 1.0 | 0.00 | 0.51 | 0.00 | 91 | 1013.9 |
| 20260510091004 | 66 | 48 | 0.0 | 2.0 | 0.00 | 0.51 | 0.00 | 91 | 1013.8 |
| 20260510090004 | 66 | 48 | 1.0 | 2.0 | 0.00 | 0.51 | 0.00 | 91 | 1013.8 |
| 20260510085006 | 66 | 48 | 1.0 | 3.0 | 0.00 | 0.51 | 0.00 | 91 | 1013.7 |
| 20260510084004 | 66 | 51 | 1.0 | 3.0 | 0.00 | 0.51 | 0.00 | 91 | 1013.6 |
| 20260510083005 | 66 | 65 | 2.0 | 3.0 | 0.00 | 0.51 | 0.00 | 91 | 1013.6 |
| 20260510081005 | 66 | 101 | 1.0 | 2.0 | 0.00 | 0.51 | 0.00 | 91 | 1013.1 |
| 20260510080005 | 67 | 101 | 0.0 | 2.0 | 0.00 | 0.51 | 0.00 | 91 | 1012.9 |
| 20260510075005 | 67 | 101 | 1.0 | 2.0 | 0.00 | 0.51 | 0.00 | 91 | 1012.9 |
| 20260510072006 | 67 | 101 | 0.0 | 2.0 | 0.00 | 0.51 | 0.00 | 91 | 1013.0 |
| 20260510071005 | 67 | 101 | 1.0 | 3.0 | 0.00 | 0.51 | 0.00 | 91 | 1012.9 |
| 20260510070005 | 67 | 101 | 1.0 | 2.0 | 0.00 | 0.51 | 0.00 | 91 | 1012.7 |
| 20260510065004 | 67 | 101 | 1.0 | 3.0 | 0.00 | 0.51 | 0.00 | 91 | 1012.8 |
| 20260510064005 | 67 | 77 | 2.0 | 3.0 | 0.00 | 0.51 | 0.00 | 91 | 1012.8 |
| 20260510063005 | 67 | 69 | 2.0 | 3.0 | 0.00 | 0.51 | 0.00 | 91 | 1013.1 |
| 20260510061005 | 67 | 69 | 0.0 | 1.0 | 0.00 | 0.51 | 0.00 | 90 | 1013.4 |
| 20260510060006 | 67 | 69 | 0.0 | 1.0 | 0.00 | 0.51 | 0.00 | 90 | 1013.7 |
| 20260510055005 | 67 | 69 | 0.0 | 2.0 | 0.00 | 0.51 | 0.00 | 91 | 1013.6 |
| 20260510054005 | 67 | 69 | 0.0 | 2.0 | 0.00 | 0.52 | 0.00 | 90 | 1013.7 |
| 20260510052005 | 68 | 69 | 0.0 | 0.0 | 0.00 | 0.52 | 0.00 | 91 | 1013.8 |
| 20260510051005 | 68 | 69 | 0.0 | 0.0 | 0.00 | 0.52 | 0.00 | 91 | 1013.9 |
| 20260510044005 | 68 | 95 | 2.0 | 3.0 | 0.01 | 0.53 | 0.53 | 90 | 1013.2 |
| 20260510042005 | 68 | 246 | 0.0 | 2.0 | 0.01 | 0.53 | 0.53 | 91 | 1014.1 |
| 20260510041005 | 69 | 246 | 0.0 | 2.0 | 0.01 | 0.53 | 0.53 | 91 | 1014.0 |
| 20260510040005 | 69 | 246 | 1.0 | 2.0 | 0.01 | 0.53 | 0.53 | 90 | 1014.2 |
| 20260510035005 | 69 | 246 | 0.0 | 3.0 | 0.01 | 0.53 | 0.53 | 90 | 1014.3 |
| 20260510034005 | 69 | 245 | 1.0 | 5.0 | 0.00 | 0.52 | 0.52 | 90 | 1014.5 |
| 20260510033005 | 69 | 30 | 0.0 | 2.0 | 0.00 | 0.52 | 0.52 | 90 | 1014.2 |
| 20260510031005 | 68 | 30 | 0.0 | 1.0 | 0.00 | 0.52 | 0.52 | 90 | 1014.0 |
| 20260510030005 | 68 | 30 | 0.0 | 1.0 | 0.00 | 0.52 | 0.52 | 90 | 1013.9 |
| 20260510025005 | 68 | 30 | 1.0 | 1.0 | 0.00 | 0.52 | 0.52 | 90 | 1013.9 |
| 20260510024005 | 69 | 30 | 0.0 | 2.0 | 0.00 | 0.52 | 0.52 | 90 | 1013.7 |
| 20260510023006 | 69 | 30 | 1.0 | 2.0 | 0.00 | 0.53 | 0.52 | 90 | 1013.6 |
| 20260510022005 | 69 | 30 | 1.0 | 3.0 | 0.01 | 0.53 | 0.52 | 90 | 1013.6 |
| 20260510020005 | 69 | 82 | 1.0 | 3.0 | 0.01 | 0.53 | 0.52 | 90 | 1013.6 |
| 20260510014006 | 69 | 75 | 2.0 | 3.0 | 0.01 | 0.56 | 0.52 | 90 | 1013.4 |
| 20260510013006 | 69 | 300 | 1.0 | 3.0 | 0.02 | 0.56 | 0.52 | 90 | 1013.7 |
| 20260510012005 | 69 | 296 | 2.0 | 3.0 | 0.01 | 0.55 | 0.51 | 90 | 1013.8 |
| 20260510011005 | 69 | 296 | 0.0 | 2.0 | 0.01 | 0.57 | 0.51 | 90 | 1013.9 |
| 20260510010005 | 69 | 296 | 0.0 | 1.0 | 0.01 | 0.57 | 0.51 | 90 | 1013.9 |
| 20260510005005 | 69 | 296 | 0.0 | 6.0 | 0.01 | 0.58 | 0.51 | 89 | 1014.0 |
| 20260510004005 | 69 | 279 | 2.0 | 7.0 | 0.01 | 0.58 | 0.51 | 90 | 1013.9 |
| 20260510003005 | 69 | 11 | 2.0 | 3.0 | 0.01 | 0.57 | 0.50 | 90 | 1013.4 |
| 20260510002006 | 69 | 345 | 1.0 | 3.0 | 0.01 | 0.57 | 0.50 | 89 | 1012.7 |
| 20260510001006 | 69 | 338 | 1.0 | 10.0 | 0.02 | 0.57 | 0.50 | 89 | 1012.8 |
| 20260510000006 | 69 | 326 | 3.0 | 12.0 | 0.02 | 0.57 | 0.50 | 89 | 1012.6 |
| 20260509235005 | 69 | 124 | 8.0 | 13.0 | 0.02 | 0.58 | 0.50 | 89 | 1011.7 |
| 20260509231005 | 71 | 49 | 2.0 | 3.0 | 0.01 | 0.57 | 0.48 | 88 | 1012.6 |
| 20260509230005 | 71 | 47 | 1.0 | 2.0 | 0.02 | 0.57 | 0.48 | 88 | 1012.8 |
| 20260509225005 | 71 | 46 | 2.0 | 3.0 | 0.02 | 0.57 | 0.48 | 88 | 1013.1 |
| 20260509223005 | 71 | 47 | 1.0 | 3.0 | 0.01 | 0.57 | 0.47 | 88 | 1012.8 |
| 20260509221006 | 71 | 45 | 0.0 | 2.0 | 0.01 | 0.57 | 0.47 | 88 | 1012.5 |
| 20260509220006 | 71 | 45 | 1.0 | 3.0 | 0.00 | 0.56 | 0.46 | 88 | 1012.6 |
| 20260509215005 | 71 | 45 | 2.0 | 3.0 | 0.00 | 0.56 | 0.46 | 88 | 1012.8 |
| 20260509214006 | 71 | 46 | 2.0 | 3.0 | 0.00 | 0.56 | 0.46 | 88 | 1012.4 |
| 20260509213006 | 71 | 130 | 4.0 | 6.0 | 0.00 | 0.58 | 0.46 | 87 | 1011.8 |
| 20260509211006 | 72 | 63 | 2.0 | 3.0 | 0.00 | 0.62 | 0.46 | 87 | 1012.5 |
| 20260509210006 | 71 | 306 | 0.0 | 2.0 | 0.00 | 0.62 | 0.46 | 87 | 1012.8 |
| 20260509205005 | 71 | 306 | 1.0 | 3.0 | 0.00 | 0.62 | 0.46 | 87 | 1012.8 |
| 20260509204005 | 71 | 306 | 1.0 | 3.0 | 0.00 | 0.62 | 0.46 | 87 | 1012.7 |
| 20260509203006 | 71 | 308 | 1.0 | 3.0 | 0.00 | 0.62 | 0.46 | 87 | 1012.4 |
| 20260509202006 | 71 | 306 | 1.0 | 5.0 | 0.00 | 0.62 | 0.46 | 87 | 1012.3 |
| 20260509200006 | 71 | 153 | 4.0 | 13.0 | 0.00 | 0.62 | 0.46 | 87 | 1011.0 |
| 20260509195006 | 71 | 124 | 6.0 | 10.0 | 0.00 | 0.62 | 0.46 | 86 | 1010.4 |
| 20260509194006 | 71 | 96 | 2.0 | 6.0 | 0.00 | 0.62 | 0.46 | 86 | 1010.8 |
| 20260509193005 | 71 | 152 | 5.0 | 9.0 | 0.00 | 0.62 | 0.46 | 86 | 1010.8 |
| 20260509192006 | 71 | 162 | 6.0 | 8.0 | 0.00 | 0.62 | 0.46 | 87 | 1010.8 |
| 20260509191006 | 70 | 153 | 3.0 | 7.0 | 0.00 | 0.62 | 0.46 | 88 | 1010.8 |
| 20260509190006 | 70 | 171 | 3.0 | 9.0 | 0.00 | 0.62 | 0.46 | 88 | 1010.5 |
| 20260509185006 | 70 | 161 | 5.0 | 13.0 | 0.00 | 0.62 | 0.46 | 89 | 1010.3 |
| 20260509183005 | 70 | 128 | 6.0 | 14.0 | 0.00 | 0.62 | 0.46 | 90 | 1010.9 |
| 20260509181005 | 69 | 110 | 6.0 | 9.0 | 0.00 | 0.62 | 0.46 | 91 | 1012.1 |
| 20260509180006 | 68 | 150 | 3.0 | 8.0 | 0.01 | 0.62 | 0.46 | 91 | 1012.7 |
| 20260509175006 | 68 | 148 | 4.0 | 12.0 | 0.02 | 0.62 | 0.46 | 92 | 1013.0 |